SM7GXQ Weather Reports


time (UTC)temp
C
wind
direction
speed
KPH
gust
KPH
rain 1hr
cm
rain 24hr
cm
rain mn
cm
humidity
%
barometer
mb
20260902203005 16 245 1.6 16.1 0.00 0.00 0.00 86 1010.8
20260902201505 16 258 3.2 14.5 0.00 0.00 0.00 86 1010.8
20260902200004 17 209 4.8 16.1 0.00 0.00 0.00 86 1010.9
20260902194505 17 204 3.2 20.9 0.00 0.00 0.00 85 1010.8
20260902190004 17 210 8.0 22.5 0.00 0.00 0.00 84 1010.8
20260902181504 17 247 3.2 19.3 0.00 0.00 0.00 85 1010.7
20260902180007 17 228 4.8 19.3 0.00 0.00 0.00 85 1010.7
20260902174504 18 226 4.8 16.1 0.00 0.00 0.00 84 1010.5
20260902170004 18 189 1.6 14.5 0.00 0.00 0.00 82 1010.6
20260902161504 19 199 4.8 14.5 0.00 0.00 0.00 80 1010.6
20260902153005 20 195 6.4 16.1 0.00 0.00 0.00 79 1010.6
20260902151504 20 212 6.4 14.5 0.00 0.03 0.00 79 1010.7
20260902144504 21 236 4.8 19.3 0.00 0.03 0.00 70 1010.8
20260902143005 22 206 6.4 19.3 0.00 0.03 0.00 70 1010.7
20260902141504 22 241 3.2 16.1 0.00 0.03 0.00 70 1010.8
20260902131504 21 204 6.4 19.3 0.00 0.05 0.00 74 1010.8
20260902130004 21 199 4.8 22.5 0.00 0.05 0.00 75 1011.1
20260902124504 21 215 3.2 12.9 0.00 0.05 0.00 74 1011.1
20260902123005 21 198 3.2 14.5 0.00 0.05 0.00 73 1011.4
20260902120004 21 241 4.8 16.1 0.00 0.05 0.00 74 1011.4
20260902114505 20 232 6.4 14.5 0.00 0.05 0.00 76 1011.7
20260902113005 20 259 4.8 14.5 0.00 0.05 0.00 76 1011.8
20260902111504 20 227 4.8 14.5 0.00 0.05 0.00 77 1011.8
20260902101505 18 238 3.2 14.5 0.00 0.05 0.00 82 1012.1
20260902100004 18 242 3.2 19.3 0.00 0.05 0.00 81 1012.0
20260902094504 18 239 4.8 14.5 0.00 0.05 0.00 81 1012.1
20260902091504 18 223 4.8 12.9 0.00 0.05 0.00 81 1012.1
20260902090005 18 221 4.8 14.5 0.00 0.05 0.00 80 1012.1
20260902084505 18 228 3.2 12.9 0.00 0.05 0.00 80 1012.1
20260902083005 17 237 3.2 14.5 0.00 0.05 0.00 82 1012.1
20260902074504 17 245 4.8 14.5 0.00 0.05 0.00 83 1012.0
20260902071505 16 213 3.2 9.7 0.00 0.05 0.00 84 1011.7
20260902070006 16 228 3.2 11.3 0.00 0.05 0.00 84 1011.7
20260902061504 15 238 1.6 11.3 0.00 0.05 0.00 86 1011.7
20260902060005 15 246 3.2 11.3 0.00 0.05 0.00 87 1011.7
20260902054503 15 249 4.8 11.3 0.00 0.05 0.00 89 1011.7
20260902051504 15 250 4.8 12.9 0.00 0.05 0.00 89 1011.5
20260902044504 14 238 4.8 11.3 0.00 0.05 0.00 90 1010.9
20260902041505 14 200 3.2 11.3 0.00 0.05 0.00 91 1010.9
20260902040004 14 235 3.2 12.9 0.00 0.05 0.00 90 1010.8
20260902034504 15 210 3.2 9.7 0.00 0.05 0.00 90 1010.8
20260902024504 15 239 4.8 11.3 0.00 0.05 0.00 90 1010.7
20260902010004 15 233 1.6 9.7 0.00 0.05 0.00 89 1010.5
20260902004504 16 217 3.2 11.3 0.00 0.05 0.00 88 1010.5
20260902001504 16 285 3.2 8.0 0.00 0.05 0.00 88 1010.4
20260902000004 16 273 3.2 11.3 0.00 0.05 0.00 88 1010.4
20260901233004 16 264 1.6 9.7 0.00 0.05 0.00 87 1010.4
20260901230005 16 229 3.2 8.0 0.00 0.05 0.00 87 1010.7
20260901224504 16 261 3.2 9.7 0.00 0.05 0.00 86 1010.3
20260901223006 16 276 4.8 11.3 0.00 0.05 0.00 85 1010.3
20260901221504 17 299 3.2 9.7 0.00 0.05 0.00 84 1010.2
20260901213005 17 272 4.8 11.3 0.00 0.05 0.05 83 1009.8
20260901204504 18 285 8.0 14.5 0.00 0.05 0.05 82 1009.7